Weather History for KSFY - July, 2013

Change the Weather History Date:

Sunday, July 28, 2013

  Actual Average (KCWI) Record (KCWI)
Temperature  
Mean Temperature 62 °F -  
Max Temperature 70 °F 84 °F 100 °F (1955)
Min Temperature 53 °F 63 °F 51 °F (2013)
Degree Days  
Heating Degree Days 4    
Growing Degree Days 12 (Base 50)    
Moisture  
Dew Point 49 °F    
Average Humidity 64    
Maximum Humidity 92    
Minimum Humidity 45    
Precipitation  
Precipitation 0.00 in - - ()
Sea Level Pressure  
Sea Level Pressure 29.97 in    
Wind  
Wind Speed 7 mph (WNW)    
Max Wind Speed 14 mph    
Max Gust Speed 18 mph    
Visibility 10 miles    
Events Rain    
Averages and records for this station are not official NWS values.
T = Trace of Precipitation, MM = Missing Value Source: NWS Daily Summary

Daily Weather History Graph

Daily Weather History Graph

Search for Another Location

Airport or City:

Trip Planner

Search our weather history database for the weather conditions in past years. The results will help you decide how hot, cold, wet, or windy it might be!

Date:

Astronomy

Jul. 28, 2013 Rise Set
Actual Time 5:50 AM CDT 8:23 PM CDT
Civil Twilight 5:18 AM CDT 8:55 PM CDT
Nautical Twilight 4:38 AM CDT 9:34 PM CDT
Astronomical Twilight 3:53 AM CDT 10:19 PM CDT
Moon 11:36 PM CDT (7/28) 12:40 PM CDT (7/28)
Length of Visible Light 15h 36m
Length of Day
14h 33m
Waning Gibbous, 60% of the Moon is Illuminated
Jul 28
Waning Gibbous
Jul 29
Last Quarter
Aug 6
New
Aug 14
First Quarter
Aug 20
Full

Hourly Weather History & Observations

Time (CDT) Temp. Dew Point Humidity Pressure Visibility Wind Dir Wind Speed Gust Speed Precip Events Conditions
12:15 AM 57.2 °F 46.9 °F 69% 29.94 in 10.0 mi West 6.9 mph - N/A   Overcast
12:35 AM 56.7 °F 46.6 °F 69% 29.94 in 10.0 mi West 5.8 mph - N/A   Overcast
12:55 AM 56.8 °F 47.7 °F 71% 29.93 in 10.0 mi West 3.5 mph - N/A   Overcast
1:15 AM 56.7 °F 48.2 °F 73% 29.93 in 10.0 mi Calm Calm - N/A   Overcast
1:35 AM 57.2 °F 47.7 °F 70% 29.92 in 10.0 mi WSW 9.2 mph - N/A   Overcast
1:55 AM 57.2 °F 48.4 °F 72% 29.92 in 10.0 mi WSW 8.1 mph - N/A   Overcast
2:15 AM 57.2 °F 48.2 °F 72% 29.92 in 10.0 mi WNW 4.6 mph - N/A   Overcast
2:35 AM 57.4 °F 48.4 °F 72% 29.91 in 10.0 mi West 4.6 mph - N/A   Overcast
2:55 AM 57.0 °F 49.3 °F 75% 29.91 in 10.0 mi WSW 9.2 mph - N/A Rain Light Rain
3:15 AM 57.6 °F 49.5 °F 74% 29.91 in 10.0 mi West 6.9 mph - N/A   Overcast
3:35 AM 57.4 °F 49.8 °F 76% 29.91 in 10.0 mi West 5.8 mph - N/A   Overcast
3:55 AM 57.4 °F 49.8 °F 76% 29.91 in 10.0 mi West 5.8 mph - N/A   Overcast
4:15 AM 57.4 °F 50.0 °F 76% 29.91 in 10.0 mi West 4.6 mph - N/A   Overcast
4:35 AM 57.2 °F 50.2 °F 77% 29.91 in 10.0 mi West 5.8 mph - N/A   Overcast
4:55 AM 57.2 °F 50.2 °F 77% 29.91 in 10.0 mi West 6.9 mph - N/A   Overcast
5:15 AM 57.2 °F 50.4 °F 78% 29.91 in 10.0 mi West 5.8 mph - N/A   Overcast
5:35 AM 57.4 °F 50.4 °F 77% 29.91 in 10.0 mi West 5.8 mph - N/A   Overcast
5:55 AM 57.4 °F 50.4 °F 77% 29.92 in 10.0 mi WNW 9.2 mph 16.1 mph N/A   Overcast
6:15 AM 57.2 °F 50.0 °F 77% 29.93 in 10.0 mi WNW 10.4 mph - N/A   Mostly Cloudy
6:35 AM 56.5 °F 50.2 °F 79% 29.94 in 10.0 mi WNW 8.1 mph - N/A   Scattered Clouds
6:55 AM 56.7 °F 50.0 °F 78% 29.94 in 10.0 mi WNW 9.2 mph - N/A   Clear
7:15 AM 55.4 °F 49.3 °F 80% 29.94 in 10.0 mi WNW 10.4 mph - N/A   Clear
7:35 AM 55.6 °F 48.9 °F 78% 29.95 in 10.0 mi WNW 11.5 mph 16.1 mph N/A   Clear
7:55 AM 56.8 °F 48.6 °F 74% 29.96 in 10.0 mi WNW 12.7 mph 16.1 mph N/A   Scattered Clouds
8:15 AM 58.1 °F 48.7 °F 71% 29.96 in 10.0 mi NW 9.2 mph - N/A   Scattered Clouds
8:35 AM 57.2 °F 48.6 °F 73% 29.96 in 10.0 mi NNW 10.4 mph - N/A   Scattered Clouds
8:55 AM 58.1 °F 47.5 °F 68% 29.96 in 10.0 mi NW 12.7 mph 16.1 mph N/A   Scattered Clouds
9:15 AM 58.8 °F 47.3 °F 66% 29.96 in 10.0 mi NW 12.7 mph - N/A   Scattered Clouds
9:35 AM 60.3 °F 47.3 °F 62% 29.97 in 10.0 mi NW 9.2 mph - N/A   Clear
9:55 AM 61.7 °F 47.5 °F 60% 29.97 in 10.0 mi WNW 9.2 mph - N/A   Scattered Clouds
10:15 AM 62.2 °F 46.6 °F 57% 29.97 in 10.0 mi NW 11.5 mph - N/A   Mostly Cloudy
10:35 AM 61.5 °F 47.3 °F 60% 29.97 in 10.0 mi WNW 11.5 mph 17.3 mph N/A   Mostly Cloudy
10:55 AM 63.9 °F 47.7 °F 56% 29.98 in 10.0 mi WNW 13.8 mph 18.4 mph N/A   Mostly Cloudy
11:15 AM 64.0 °F 47.5 °F 55% 29.98 in 10.0 mi NW 12.7 mph 17.3 mph N/A   Scattered Clouds
11:35 AM 64.9 °F 48.2 °F 55% 29.99 in 10.0 mi WNW 11.5 mph - N/A   Scattered Clouds
11:55 AM 65.8 °F 48.7 °F 54% 29.99 in 10.0 mi WNW 10.4 mph 16.1 mph N/A   Scattered Clouds
12:15 PM 66.2 °F 49.1 °F 54% 29.98 in 10.0 mi WNW 11.5 mph - N/A   Clear
12:35 PM 67.1 °F 49.1 °F 52% 29.99 in 10.0 mi WNW 6.9 mph - N/A   Scattered Clouds
12:55 PM 66.6 °F 48.9 °F 53% 29.99 in 10.0 mi WNW 11.5 mph - N/A   Mostly Cloudy
1:15 PM 67.5 °F 48.0 °F 50% 29.99 in 10.0 mi NW 10.4 mph - N/A   Scattered Clouds
1:35 PM 65.8 °F 48.7 °F 54% 29.99 in 10.0 mi WNW 11.5 mph - N/A   Mostly Cloudy
1:55 PM 67.5 °F 48.4 °F 50% 29.99 in 10.0 mi WNW 11.5 mph - N/A   Mostly Cloudy
2:15 PM 68.7 °F 48.0 °F 48% 29.99 in 10.0 mi WNW 10.4 mph 17.3 mph N/A   Scattered Clouds
2:35 PM 68.9 °F 48.6 °F 48% 29.99 in 10.0 mi WNW 11.5 mph 17.3 mph N/A   Scattered Clouds
2:55 PM 68.9 °F 48.4 °F 48% 29.99 in 10.0 mi WNW 9.2 mph - N/A   Scattered Clouds
3:15 PM 69.3 °F 48.6 °F 48% 29.99 in 10.0 mi WNW 12.7 mph 18.4 mph N/A   Scattered Clouds
3:35 PM 69.6 °F 48.7 °F 47% 29.99 in 10.0 mi West 9.2 mph - N/A   Scattered Clouds
3:55 PM 70.7 °F 48.6 °F 45% 29.99 in 10.0 mi WNW 10.4 mph - N/A   Scattered Clouds
4:15 PM 70.0 °F 48.4 °F 46% 29.99 in 10.0 mi West 8.1 mph - N/A   Scattered Clouds
4:35 PM 68.4 °F 47.5 °F 47% 29.99 in 10.0 mi West 6.9 mph - N/A   Mostly Cloudy
4:55 PM 69.8 °F 49.3 °F 48% 29.99 in 10.0 mi West 6.9 mph - N/A   Mostly Cloudy
5:15 PM 68.7 °F 48.4 °F 48% 29.99 in 10.0 mi WNW 6.9 mph - N/A   Mostly Cloudy
5:35 PM 69.3 °F 50.0 °F 50% 30.00 in 10.0 mi West 5.8 mph - N/A   Mostly Cloudy
5:55 PM 68.9 °F 49.6 °F 50% 29.99 in 10.0 mi WNW 4.6 mph - N/A   Mostly Cloudy
6:15 PM 69.4 °F 49.6 °F 49% 30.00 in 10.0 mi West 4.6 mph - N/A   Scattered Clouds
6:35 PM 67.6 °F 50.2 °F 54% 30.00 in 10.0 mi West 3.5 mph - N/A   Clear
6:55 PM 68.2 °F 49.6 °F 51% 30.01 in 10.0 mi WNW 4.6 mph - N/A   Mostly Cloudy
7:15 PM 68.4 °F 49.5 °F 51% 30.01 in 10.0 mi West 4.6 mph - N/A   Scattered Clouds
7:35 PM 68.5 °F 49.3 °F 50% 30.01 in 10.0 mi West 6.9 mph - N/A   Mostly Cloudy
7:55 PM 67.5 °F 49.8 °F 53% 30.01 in 10.0 mi West 4.6 mph - N/A   Scattered Clouds
8:15 PM 66.4 °F 50.0 °F 56% 30.01 in 10.0 mi West 4.6 mph - N/A   Scattered Clouds
8:35 PM 65.7 °F 50.2 °F 57% 30.01 in 10.0 mi West 4.6 mph - N/A   Clear
8:55 PM 64.9 °F 51.3 °F 61% 30.02 in 10.0 mi WSW 3.5 mph - N/A   Clear
9:15 PM 64.4 °F 51.8 °F 64% 30.03 in 10.0 mi Calm Calm - N/A   Clear
9:35 PM 63.9 °F 51.8 °F 65% 30.04 in 10.0 mi West 3.5 mph - N/A   Clear
9:55 PM 63.5 °F 51.8 °F 66% 30.04 in 10.0 mi West 3.5 mph - N/A   Clear
10:15 PM 63.0 °F 51.3 °F 66% 30.04 in 10.0 mi Calm Calm - N/A   Clear
10:35 PM 58.3 °F 51.4 °F 78% 30.05 in 10.0 mi Calm Calm - N/A   Clear
10:55 PM 55.8 °F 51.1 °F 84% 30.05 in 10.0 mi Calm Calm - N/A   Clear
11:15 PM 55.0 °F 51.4 °F 88% 30.05 in 10.0 mi Calm Calm - N/A   Clear
11:35 PM 53.6 °F 50.7 °F 90% 30.05 in 10.0 mi Calm Calm - N/A   Clear
11:55 PM 53.4 °F 51.1 °F 92% 30.06 in 10.0 mi Calm Calm - N/A   Clear